McKinney, TX

12:00 AM CDT on September 29, 2016 (GMT -0500)
Collin County Regional

Weather History for KTKI - November, 2012

Change the Weather History Date:

Monday, November 19, 2012

  Actual Average (KADS) Record (KADS)
Temperature  
Mean Temperature 63 °F -  
Max Temperature 71 °F 63 °F 77 °F (1998)
Min Temperature 53 °F 47 °F 35 °F (2000)
Degree Days  
Heating Degree Days 2    
Growing Degree Days 13 (Base 50)    
Moisture  
Dew Point 44 °F    
Average Humidity 54    
Maximum Humidity 77    
Minimum Humidity 40    
Precipitation  
Precipitation 0.00 in - - ()
Sea Level Pressure  
Sea Level Pressure 30.19 in    
Wind  
Wind Speed 10 mph (South)    
Max Wind Speed 16 mph    
Max Gust Speed 21 mph    
Visibility 10 miles    
Events      
Averages and records for this station are not official NWS values.
T = Trace of Precipitation, MM = Missing Value Source: NWS Daily Summary

Daily Weather History Graph

Daily Weather History Graph

Search for Another Location

Airport or City:

Trip Planner

Search our weather history database for the weather conditions in past years. The results will help you decide how hot, cold, wet, or windy it might be!

Date:

Astronomy

Nov. 19, 2012 Rise Set
Actual Time 7:01 AM CST 5:22 PM CST
Civil Twilight 6:34 AM CST 5:48 PM CST
Nautical Twilight 6:04 AM CST 6:18 PM CST
Astronomical Twilight 5:35 AM CST 6:48 PM CST
Moon 12:11 PM CST (11/19) 11:42 PM CST (11/19)
Length of Visible Light 11h 13m
Length of Day
10h 20m
Waxing Crescent, 41% of the Moon is Illuminated
Nov 19
Waxing Crescent
Nov 20
First Quarter
Nov 28
Full
Dec 6
Last Quarter
Dec 13
New

Hourly Weather History & Observations

Time (CST) Temp. Dew Point Humidity Pressure Visibility Wind Dir Wind Speed Gust Speed Precip Events Conditions
12:53 AM 57.0 °F 37.0 °F 47% 30.22 in 10.0 mi SSE 8.1 mph - N/A   Clear
1:53 AM 57.9 °F 37.0 °F 46% 30.22 in 10.0 mi SSE 11.5 mph - N/A   Overcast
2:53 AM 57.0 °F 37.9 °F 49% 30.22 in 10.0 mi SSE 8.1 mph - N/A   Overcast
3:53 AM 57.0 °F 37.9 °F 49% 30.21 in 10.0 mi SSE 10.4 mph - N/A   Overcast
4:53 AM 55.9 °F 37.9 °F 51% 30.21 in 10.0 mi SSE 8.1 mph - N/A   Mostly Cloudy
5:53 AM 55.9 °F 39.9 °F 55% 30.22 in 10.0 mi South 10.4 mph - N/A   Overcast
6:53 AM 55.9 °F 41.0 °F 57% 30.23 in 10.0 mi SSE 11.5 mph - N/A   Overcast
7:53 AM 57.0 °F 39.9 °F 53% 30.25 in 10.0 mi South 12.7 mph - N/A   Mostly Cloudy
8:53 AM 57.9 °F 39.0 °F 49% 30.26 in 10.0 mi South 11.5 mph - N/A   Partly Cloudy
9:53 AM 61.0 °F 37.0 °F 41% 30.25 in 10.0 mi South 15.0 mph - N/A   Mostly Cloudy
10:53 AM 63.0 °F 37.9 °F 40% 30.24 in 10.0 mi South 16.1 mph - N/A   Overcast
11:53 AM 66.9 °F 42.1 °F 40% 30.21 in 10.0 mi South 12.7 mph - N/A   Overcast
12:53 PM 70.0 °F 45.0 °F 41% 30.17 in 10.0 mi SSW 16.1 mph 20.7 mph N/A   Clear
1:53 PM 71.1 °F 48.9 °F 45% 30.14 in 10.0 mi South 13.8 mph - N/A   Clear
2:53 PM 71.1 °F 51.1 °F 49% 30.13 in 10.0 mi South 12.7 mph - N/A   Clear
3:53 PM 71.1 °F 51.1 °F 49% 30.12 in 10.0 mi South 15.0 mph - N/A   Clear
4:53 PM 69.1 °F 52.0 °F 54% 30.13 in 10.0 mi South 10.4 mph - N/A   Clear
5:53 PM 62.1 °F 51.1 °F 67% 30.15 in 10.0 mi SSE 5.8 mph - N/A   Clear
6:53 PM 62.1 °F 51.1 °F 67% 30.17 in 10.0 mi SE 4.6 mph - N/A   Clear
7:53 PM 62.1 °F 52.0 °F 70% 30.18 in 10.0 mi ESE 4.6 mph - N/A   Mostly Cloudy
9:53 PM 59.0 °F 48.9 °F 69% 30.17 in 10.0 mi Calm Calm - N/A   Partly Cloudy
10:53 PM 57.9 °F 46.9 °F 67% 30.17 in 10.0 mi Calm Calm - N/A   Clear
11:53 PM 53.1 °F 46.0 °F 77% 30.16 in 10.0 mi Calm Calm - N/A   Unknown